Teterboro, NJ

1:10 PM EST on February 24, 2018 (GMT -0500)
Teterboro

Weather History for KTEB - June, 2013

Change the Weather History Date:

Monday, June 17, 2013

  Actual Average Record
Temperature  
Mean Temperature 75 °F -  
Max Temperature 87 °F 79 °F 93 °F (2014)
Min Temperature 66 °F 59 °F 54 °F (1997)
Cooling Degree Days 10    
Growing Degree Days 25 (Base 50)    
Moisture  
Dew Point 63 °F    
Average Humidity 67    
Maximum Humidity 93    
Minimum Humidity 43    
Precipitation  
Precipitation 0.00 in - - ()
Sea Level Pressure  
Sea Level Pressure 29.86 in    
Wind  
Wind Speed 6 mph (SSW)    
Max Wind Speed 15 mph    
Max Gust Speed 23 mph    
Visibility 10 miles    
Events      
Averages and records for this station are not official NWS values.
T = Trace of Precipitation, MM = Missing Value Source: NWS Daily Summary

Daily Weather History Graph

Daily Weather History Graph

Search for Another Location

Airport or City:

Trip Planner

Search our weather history database for the weather conditions in past years. The results will help you decide how hot, cold, wet, or windy it might be!

Date:

Astronomy

Jun. 17, 2013 Rise Set
Actual Time 5:24 AM EDT 8:30 PM EDT
Civil Twilight 4:50 AM EDT 9:03 PM EDT
Nautical Twilight 4:07 AM EDT 9:46 PM EDT
Astronomical Twilight 3:17 AM EDT 10:37 PM EDT
Moon 2:04 PM EDT (6/17) 1:00 AM EDT (6/17)
Length of Visible Light 16h 13m
Length of Day
15h 06m
First Quarter, 60% of the Moon is Illuminated
Jun 17
First Quarter
Jun 23
Full
Jun 30
Last Quarter
Jul 8
New
Jul 15
First Quarter

Hourly Weather History & Observations

Time (EDT) Temp. Heat Index Dew Point Humidity Pressure Visibility Wind Dir Wind Speed Gust Speed Precip Events Conditions
12:51 AM 69.1 °F - 64.0 °F 84% 29.85 in 10.0 mi SW 4.6 mph - N/A   Clear
1:51 AM 68.0 °F - 64.0 °F 87% 29.85 in 10.0 mi South 3.5 mph - N/A   Clear
2:51 AM 66.9 °F - 64.0 °F 90% 29.86 in 10.0 mi Calm Calm - N/A   Clear
3:51 AM 66.0 °F - 64.0 °F 93% 29.86 in 10.0 mi South 3.5 mph - N/A   Clear
4:51 AM 66.0 °F - 63.0 °F 90% 29.87 in 9.0 mi SSW 4.6 mph - N/A   Clear
5:51 AM 66.9 °F - 64.0 °F 90% 29.88 in 8.0 mi South 4.6 mph - N/A   Clear
6:51 AM 68.0 °F - 64.9 °F 90% 29.89 in 10.0 mi SSW 5.8 mph - N/A   Mostly Cloudy
7:51 AM 71.1 °F - 64.9 °F 81% 29.90 in 9.0 mi SSW 4.6 mph - N/A   Mostly Cloudy
8:51 AM 75.9 °F - 66.0 °F 71% 29.90 in 10.0 mi West 6.9 mph - N/A   Clear
9:51 AM 78.1 °F - 66.0 °F 66% 29.89 in 10.0 mi SSW 6.9 mph - N/A   Clear
10:51 AM 80.1 °F 81.2 °F 62.1 °F 54% 29.87 in 10.0 mi SW 6.9 mph - N/A   Clear
11:51 AM 82.9 °F 83.7 °F 62.1 °F 49% 29.86 in 10.0 mi WSW 12.7 mph 23.0 mph N/A   Scattered Clouds
12:51 PM 82.9 °F 83.3 °F 61.0 °F 47% 29.86 in 10.0 mi SSW 8.1 mph - N/A   Partly Cloudy
1:51 PM 84.9 °F 84.8 °F 60.1 °F 43% 29.84 in 10.0 mi SW 15.0 mph 21.9 mph N/A   Mostly Cloudy
2:51 PM 82.9 °F 82.8 °F 59.0 °F 44% 29.83 in 10.0 mi WSW 11.5 mph 18.4 mph N/A   Partly Cloudy
3:51 PM 81.0 °F 81.7 °F 61.0 °F 50% 29.83 in 10.0 mi West 8.1 mph 19.6 mph 0.00 in   Clear
4:51 PM 84.9 °F 85.9 °F 63.0 °F 48% 29.82 in 10.0 mi SW 13.8 mph 19.6 mph N/A   Clear
5:51 PM 84.0 °F 84.5 °F 62.1 °F 47% 29.82 in 10.0 mi SW 11.5 mph - N/A   Clear
6:51 PM 82.9 °F 83.7 °F 62.1 °F 49% 29.83 in 10.0 mi SW 10.4 mph - N/A   Clear
7:51 PM 81.0 °F 81.7 °F 61.0 °F 50% 29.85 in 10.0 mi South 12.7 mph - N/A   Clear
8:51 PM 75.9 °F - 64.0 °F 67% 29.86 in 10.0 mi SW 6.9 mph - N/A   Clear
9:51 PM 75.9 °F - 64.0 °F 67% 29.88 in 10.0 mi SSE 4.6 mph - N/A   Clear
10:51 PM 75.0 °F - 64.0 °F 69% 29.88 in 10.0 mi SSE 4.6 mph - N/A   Clear
11:51 PM 73.0 °F - 64.0 °F 73% 29.88 in 10.0 mi South 3.5 mph - N/A   Clear